{"data":{"norad_id":52754,"intl_designator":"2022-057Y","name":"HAWK-5C","alt_names":[],"object_type":"PAYLOAD","status":"ACTIVE","operator":null,"country":"US","launch_date":"2022-05-25","launch_site_code":"AFETR","launch_vehicle":null,"mission":null,"orbit_class":"UNKNOWN","rcs_meters":null,"size_class":null,"mass_kg":null,"dimensions":null,"purposes":["tech_demo"],"wikipedia_slug":null,"has_3d_model":false,"image_url":null,"decayed_at":null,"tle_current":{"epoch":"2026-05-24T22:42:41.553792Z","epoch_age_seconds":90429,"freshness":"FRESH","line1":"1 52754U 22057Y   26144.94631428  .00016793  00000+0  29644-3 0  9996","line2":"2 52754  97.6568 303.1378 0005428 149.4534 210.7034 15.50440280222743","mean_motion":15.5044028,"eccentricity":0.0005428,"inclination_deg":97.6568,"raan_deg":303.1378,"arg_perigee_deg":149.4534,"mean_anomaly_deg":210.7034,"bstar":0.00029644,"rev_number":22274,"period_min":92.876843989115,"perigee_km":411.75209244149,"apogee_km":419.12719924822,"semimajor_km":6793.5766458449,"source":"CELESTRAK","updated_at":"2026-05-25T13:38:24.927951Z"}}}